Location: Charbonni�res
(45.9952°N, 2.9982°E)
Time: 17:19:35
(UTC+00:00)

NOAA 6 - Pass Details

Date: 29 November 2020
Orbit: 773 x 786 km, 98.7° (Epoch: 23 January)

Event Time Altitude Azimuth Distance (km) Brightness Sun altitude
Rises 06:04:39 0° 12° (NNE) 3,262 7.2 -10.7°
Reaches altitude 10° 06:06:58 10° 11° (N) 2,330 6.4 -10.3°
Maximum altitude 06:12:05 76° 287° (WNW) 802 4.0 -9.4°
Drops below altitude 10° 06:17:11 10° 202° (SSW) 2,313 6.5 -8.6°
Sets 06:19:29 0° 201° (SSW) 3,237 7.3 -8.3°
